This is the latest recevied weather packets stored in our database for station/object N7WSS. If no packets are shown the sender has not sent any weather packets the latest 1 day(s).
| Time | Temp. | Humidity | Pressure | Rain* | Wind** | Luminosity | Snow |
|---|---|---|---|---|---|---|---|
| 1777982089 | 13.33° C | 88% | 1009.1 hPa | 0 mm | 1.34 m/s, 250° | - | - |
| 1777981787 | 13.33° C | 89% | 1009.2 hPa | 1.78 mm | 0.89 m/s, 269° | - | - |
| 1777981483 | 13.33° C | 90% | 1009.2 hPa | 1.78 mm | 0.89 m/s, 275° | - | - |
| 1777981180 | 13.33° C | 89% | 1009 hPa | 0 mm | 0.89 m/s, 276° | - | - |
| 1777980876 | 13.89° C | 88% | 1009.2 hPa | 0 mm | 0.89 m/s, 232° | - | - |
| 1777980572 | 13.89° C | 87% | 1009.4 hPa | 0 mm | 0.89 m/s, 238° | - | - |
| 1777980270 | 13.89° C | 88% | 1009.9 hPa | 0 mm | 0.89 m/s, 261° | - | - |
| 1777979966 | 13.89° C | 88% | 1009.7 hPa | 0 mm | 1.34 m/s, 262° | - | - |
| 1777979661 | 13.89° C | 89% | 1009.9 hPa | 1.27 mm | 0.89 m/s, 312° | - | - |
| 1777979357 | 13.89° C | 88% | 1009.5 hPa | 1.27 mm | 0.89 m/s, 255° | - | - |
| 1777979054 | 13.89° C | 88% | 1009.9 hPa | 0 mm | 0.45 m/s, 311° | - | - |
| 1777978751 | 13.89° C | 88% | 1010 hPa | 0 mm | 0.45 m/s, 269° | - | - |
| 1777978448 | 13.89° C | 89% | 1010 hPa | 0 mm | 0.89 m/s, 265° | - | - |
| 1777978144 | 13.89° C | 89% | 1010.1 hPa | 0 mm | 0.45 m/s, 253° | - | - |
| 1777977841 | 13.89° C | 89% | 1009.9 hPa | 0 mm | 0.89 m/s, 292° | - | - |
| 1777977537 | 13.89° C | 90% | 1009.7 hPa | 0 mm | 0.89 m/s, 271° | - | - |
| 1777977235 | 13.89° C | 91% | 1010 hPa | 0 mm | 0.45 m/s, 266° | - | - |
| 1777976932 | 13.89° C | 91% | 1009.9 hPa | 1.78 mm | 0.89 m/s, 248° | - | - |
| 1777976629 | 13.89° C | 92% | 1010.3 hPa | 1.78 mm | 0.89 m/s, 284° | - | - |
| 1777976325 | 13.89° C | 92% | 1010.5 hPa | 0 mm | 1.34 m/s, 266° | - | - |
| 1777976019 | 13.89° C | 92% | 1010.6 hPa | 0 mm | 0.45 m/s, 240° | - | - |
| 1777975716 | 13.89° C | 92% | 1010.5 hPa | 0 mm | 1.34 m/s, 283° | - | - |
| 1777975413 | 13.89° C | 92% | 1010.7 hPa | 0 mm | 1.79 m/s, 281° | - | - |
| 1777975108 | 13.89° C | 93% | 1010.6 hPa | 0 mm | 1.79 m/s, 274° | - | - |
| 1777974806 | 13.33° C | 93% | 1010.7 hPa | 0 mm | 1.34 m/s, 241° | - | - |
* Rain latest hour (hover to see other rain measurements)
** Current wind speed in m/s (hover to see current wind gust speed)